KC3QWH Weather Reports


time (UTC)temp
F
wind
direction
speed
knots
gust
knots
rain 1hr
in
rain 24hr
in
rain mn
in
humidity
%
barometer
mb
20260505171600 79 243 9.6 22.6 0.00 0.00 0.00 41 1009.6
20260505170059 79 249 13.9 19.1 0.00 0.00 0.00 42 1009.7
20260505164602 79 231 9.6 16.5 0.00 0.00 0.00 44 1009.7
20260505163058 79 236 7.8 15.6 0.00 0.00 0.00 46 1010.1
20260505161559 78 226 6.1 13.9 0.00 0.00 0.00 47 1010.1
20260505153105 77 264 7.8 13.9 0.00 0.00 0.00 51 1010.4
20260505151558 76 192 8.7 13.9 0.00 0.00 0.00 49 1010.2
20260505130109 66 224 7.0 9.6 0.00 0.00 0.00 63 1011.7
20260505124605 65 0 0.0 0.0 0.00 0.00 0.00 69 1011.7
20260505123112 63 0 0.0 0.0 0.00 0.00 0.00 75 1011.8
20260505121556 60 0 0.0 3.5 0.00 0.00 0.00 77 1011.5
20260505120108 57 24 1.7 2.6 0.00 0.00 0.00 79 1011.5
20260505114558 56 23 0.9 2.6 0.00 0.00 0.00 79 1011.5
20260505113059 54 21 1.7 3.5 0.00 0.00 0.00 82 1011.3
20260505111557 52 43 3.5 5.2 0.00 0.00 0.00 84 1011.1
20260505110106 50 46 1.7 3.5 0.00 0.00 0.00 85 1011.2
20260505101556 51 3 3.5 5.2 0.00 0.00 0.00 83 1010.9
20260505100058 51 359 0.9 1.7 0.00 0.00 0.00 82 1010.4
20260505094557 52 8 1.7 2.6 0.00 0.00 0.00 82 1010.6
20260505093054 52 261 1.7 5.2 0.00 0.00 0.00 81 1010.5
20260505091619 52 33 3.5 5.2 0.00 0.00 0.00 81 1010.3
20260505090120 53 39 4.3 6.1 0.00 0.00 0.00 80 1010.1
20260505084613 53 41 2.6 3.5 0.00 0.00 0.00 79 1010.2
20260505083108 53 11 2.6 3.5 0.00 0.00 0.00 79 1010.2
20260505081603 54 16 3.5 4.3 0.00 0.00 0.00 79 1010.1
20260505074555 54 27 2.6 3.5 0.00 0.00 0.00 78 1010.1
20260505073101 55 34 2.6 2.6 0.00 0.00 0.00 76 1009.8
20260505071613 55 39 0.0 2.6 0.00 0.00 0.00 76 1009.6
20260505070058 55 34 2.6 4.3 0.00 0.00 0.00 76 1009.8
20260505064605 55 46 2.6 4.3 0.00 0.00 0.00 76 1009.9
20260505063100 56 49 4.3 6.1 0.00 0.00 0.00 75 1010.0
20260505061609 56 43 2.6 3.5 0.00 0.00 0.00 75 1010.1
20260505060104 57 37 0.9 2.6 0.00 0.00 0.00 73 1010.1
20260505054556 57 44 1.7 2.6 0.00 0.00 0.00 70 1010.0
20260505053108 57 0 0.0 1.7 0.00 0.00 0.00 70 1010.1
20260505051604 57 41 1.7 3.5 0.00 0.00 0.00 71 1010.1
20260505041602 60 36 0.9 1.7 0.00 0.00 0.00 64 1009.8
20260505034557 59 152 0.0 0.9 0.00 0.00 0.00 63 1009.7
20260505033057 61 25 0.9 1.7 0.00 0.00 0.00 62 1009.8
20260505031556 62 0 0.9 3.5 0.00 0.00 0.00 59 1009.8
20260505030123 62 360 0.9 5.2 0.00 0.00 0.00 59 1009.8
20260505024559 62 31 3.5 5.2 0.00 0.00 0.00 57 1009.7
20260505023055 64 34 2.6 5.2 0.00 0.00 0.00 55 1009.6
20260505021557 66 176 1.7 7.8 0.00 0.00 0.00 51 1009.5
20260505020100 66 208 2.6 7.0 0.00 0.00 0.00 50 1009.6
20260505014610 66 219 4.3 9.6 0.00 0.00 0.00 50 1009.5
20260505013056 67 222 4.3 10.4 0.00 0.00 0.00 49 1009.6
20260505011557 67 220 5.2 10.4 0.00 0.00 0.00 49 1009.6
20260505004600 68 203 4.3 8.7 0.00 0.00 0.00 48 1009.2
20260505003059 69 203 4.3 7.0 0.00 0.00 0.00 45 1009.0
20260505001601 69 203 3.5 8.7 0.00 0.00 0.00 46 1008.8
20260504234555 70 231 4.3 11.3 0.00 0.00 0.00 44 1008.7
20260504233059 71 225 5.2 13.9 0.00 0.00 0.00 44 1008.6
20260504231555 71 224 7.8 15.6 0.00 0.00 0.00 43 1008.6
20260504230054 72 237 5.2 13.9 0.00 0.00 0.00 43 1008.6
20260504224557 72 214 10.4 18.2 0.00 0.00 0.00 42 1008.6
20260504223117 72 190 10.4 18.2 0.00 0.00 0.00 42 1008.7
20260504221558 73 230 9.6 15.6 0.00 0.00 0.00 42 1008.8
20260504214555 73 257 13.0 19.1 0.00 0.00 0.00 41 1008.8
20260504213101 73 212 9.6 16.5 0.00 0.00 0.00 40 1008.7
20260504211651 73 212 10.4 18.2 0.00 0.00 0.00 40 1008.8
20260504210056 73 217 12.2 19.1 0.00 0.00 0.00 39 1008.7
20260504204604 73 238 11.3 18.2 0.00 0.00 0.00 39 1008.7
20260504203107 73 252 8.7 15.6 0.00 0.00 0.00 40 1008.9
20260504201611 72 256 7.0 13.0 0.00 0.00 0.00 40 1009.2
20260504200109 72 187 9.6 16.5 0.00 0.00 0.00 41 1009.3
20260504194606 72 236 10.4 17.4 0.00 0.00 0.00 42 1009.7
20260504193111 71 249 13.0 20.0 0.00 0.00 0.00 40 1009.8
20260504191612 71 221 11.3 17.4 0.00 0.00 0.00 42 1010.1
20260504190109 71 248 9.6 14.8 0.00 0.00 0.00 42 1010.3
20260504184557 71 224 12.2 16.5 0.00 0.00 0.00 42 1010.5
20260504183057 71 217 7.0 16.5 0.00 0.00 0.00 42 1010.7
20260504181604 70 217 7.8 16.5 0.00 0.00 0.00 44 1010.9
20260504174556 70 165 7.8 11.3 0.00 0.00 0.00 41 1011.3
20260504173100 69 219 9.6 13.0 0.00 0.00 0.00 41 1011.5